Weather in Guildford

United Kingdom     51°14′26″N   0°35′11″E
temp.,
°C
wind,
m/s
gust,
m/s
humid.,
%
clouds,
%
prec.,
mm/h
press.,
hPa
HPBL,
m
19 april, mon
mon1901:00+4se11905 0.0 102410
04:00+3se11895 0.0 102310
07:00+4sse11855 0.0 102310
10:00+10e22633 0.0 1022571
13:00+14e22534 0.0 10211354
16:00+15se215087 0.0 10191748
19:00+11ssw257822 0.1 1019226
22:00+8s228090 0.0 102034
20 april, tue
tue2001:00+6s118125 0.0 101918
04:00+4sse11867 0.0 101910
07:00+5e00857 0.0 101912
10:00+11ne22657 0.0 1019676
13:00+15ne335175 0.1 10181791
16:00+15nw2251100 0.0 10171603
19:00+12nne247475 0.3 1017132
22:00+8se118693 0.2 101824
21 april, wed
wed2101:00+8se1184100 0.3 101911
04:00+8nne1186100 0.0 101910
07:00+8ne2584100 0.0 1019180
10:00+12ne676963 0.0 1021989
13:00+11ne7872100 0.4 10211101
16:00+11ne6763100 0.1 10221465
19:00+9ne586287 0.1 1022915
22:00+5ene497556 0.0 1025270
22 april, thu
thu2201:00+3ne48835 0.0 1025216
04:00+1ne348815 0.0 102569
07:00+2ne288343 0.0 1026296
10:00+8ne465393 0.0 1027849
13:00+11ene454345 0.0 10261336
16:00+13ene45455 0.0 10261593
19:00+10e47645 0.0 1026320
22:00+4e33875 0.0 102837
23 april, fri
fri2301:00+2e22900 0.0 102812
04:00+2ene22920 0.0 102832
07:00+3ne24885 0.0 1029126
10:00+9e46655 0.0 1028905
13:00+13e67514 0.0 10271293
16:00+12e67494 0.0 10261251
19:00+9ene58610 0.0 1026528
22:00+4ene411818 0.0 1027268